DW1549 Fauske NO current weather conditions

sailwx.info

Wind from 115

Air temperature 11.7° C
Dewpoint 9.9° C

Last reported at 2017-Jun-25 20:09 UTC.
Time now 2017-Jun-25 20:58 UTC

Location: N 67°16' E 015°25'.
View on Google Maps.

See reports from other nearby stations

  
Tides and Currents Weather Stations Pressure Air Temp Water Temp Dewpoint Dewpoint Depression Visibility Wind Speed Wind Dir Waves Ship Positions
date/time (UTC)wind fromknots sea level pressurealtimeterstation pressurevisibilityair tempwater tempwave heightnotes
2017-Jun-25 20:09 115 11.7
2017-Jun-25 19:49 115 12.2
2017-Jun-25 19:39 115 12.2
2017-Jun-25 19:29 115 12.2
2017-Jun-25 19:19 115 12.2
2017-Jun-25 19:09 115 12.2
2017-Jun-25 18:39 115 12.2
2017-Jun-25 18:09 115 12.8
2017-Jun-25 17:49 115 12.8
2017-Jun-25 17:39 115 12.8
2017-Jun-25 17:19 115 12.8
2017-Jun-25 17:09 115 12.8
2017-Jun-25 16:59 115 13.3
2017-Jun-25 16:39 115 13.3
2017-Jun-25 16:29 115 13.3
2017-Jun-25 15:59 112 13.3
2017-Jun-25 15:39 109 13.9
2017-Jun-25 15:19 109 13.9
2017-Jun-25 15:09 109 13.3
2017-Jun-25 14:59 109 12.8
2017-Jun-25 14:49 109 13.3
2017-Jun-25 14:39 109 13.3
2017-Jun-25 14:29 109 13.3
2017-Jun-25 14:09 109 13.9
2017-Jun-25 13:59 109 13.9
2017-Jun-25 13:49 109 13.9
2017-Jun-25 13:19 109 13.9
2017-Jun-25 12:49 109 13.3
2017-Jun-25 12:39 109 13.3
2017-Jun-25 11:59 109 13.3
2017-Jun-25 11:49 109 1 gusting 4 13.3
2017-Jun-25 11:39 107 0 gusting 5 13.3
2017-Jun-25 11:19 039 0 gusting 4 12.8
2017-Jun-25 11:09 040 12.8
2017-Jun-25 10:59 040 12.2
2017-Jun-25 10:49 040 1 gusting 5 12.2
2017-Jun-25 10:19 039 1 gusting 6 11.7
2017-Jun-25 09:59 036 2 gusting 7 11.7
2017-Jun-25 09:49 045 0 gusting 5 11.7
2017-Jun-25 09:39 026 2 gusting 7 11.7
2017-Jun-25 09:19 028 1 gusting 7 11.7
2017-Jun-25 08:59 039 0 gusting 6 11.7
2017-Jun-25 08:49 022 2 gusting 10 11.7
2017-Jun-25 08:19 037 1 gusting 6 11.1
2017-Jun-25 08:09 027 1 gusting 5 11.1
2017-Jun-25 07:59 019 0 gusting 6 11.1
2017-Jun-25 07:29 025 0 gusting 8 10.6
2017-Jun-25 07:19 027 0 gusting 8 10.6
2017-Jun-25 06:59 006 0 gusting 7 10.6
2017-Jun-25 06:09 014 1 gusting 6 10.0
2017-Jun-25 05:49 045 0 gusting 6 10.0
2017-Jun-25 05:29 351 10.0
2017-Jun-25 05:19 028 10.0
2017-Jun-25 04:59 059 10.0
2017-Jun-25 04:19 039 9.4
2017-Jun-25 03:49 039 9.4
2017-Jun-25 03:39 039 9.4
2017-Jun-25 03:19 039 9.4
2017-Jun-25 02:59 016 9.4
2017-Jun-25 02:19 089 9.4
2017-Jun-25 02:09 089 9.4
2017-Jun-25 01:59 089 9.4
2017-Jun-25 01:49 089 9.4
2017-Jun-25 01:39 089 9.4
2017-Jun-25 01:29 089 0 gusting 2 9.4
2017-Jun-25 01:19 089 9.4
2017-Jun-25 01:09 089 9.4
2017-Jun-25 00:59 089 9.4
2017-Jun-25 00:49 089 9.4
2017-Jun-25 00:19 089 9.4
2017-Jun-25 00:09 089 9.4
2017-Jun-24 23:59 089 9.4
2017-Jun-24 23:49 097 9.4
2017-Jun-24 23:39 097 9.4
2017-Jun-24 23:29 097 9.4
2017-Jun-24 23:19 097 9.4
2017-Jun-24 23:09 103 0 gusting 2 9.4
2017-Jun-24 22:59 115 9.4
2017-Jun-24 22:49 116 9.4
2017-Jun-24 22:29 118 10.0
2017-Jun-24 22:19 118 10.0
2017-Jun-24 21:59 122 10.0
2017-Jun-24 21:49 122 10.0
2017-Jun-24 21:29 122 10.0
2017-Jun-24 21:19 122 10.6
2017-Jun-24 21:09 122 10.6
2017-Jun-24 20:59 123 10.6
2017-Jun-24 20:39 131 10.6
2017-Jun-24 20:09 131 11.1
2017-Jun-24 19:59 131 11.1
2017-Jun-24 19:49 131 11.1
2017-Jun-24 19:29 131 11.7
2017-Jun-24 19:19 131 11.7
2017-Jun-24 19:09 131 11.7
2017-Jun-24 18:49 131 11.7
2017-Jun-24 18:39 131 11.7
2017-Jun-24 18:09 131 0 gusting 2 11.7
2017-Jun-24 17:49 131 1 gusting 6 12.2
2017-Jun-24 17:29 110 2 gusting 5 12.2
2017-Jun-24 17:09 109 1 gusting 6 12.2
2017-Jun-24 16:49 124 2 gusting 8 12.2
2017-Jun-24 16:29 121 2 gusting 7 12.2
2017-Jun-24 15:59 122 2 gusting 6 12.2
2017-Jun-24 15:49 126 2 gusting 7 12.2
2017-Jun-24 15:29 118 3 gusting 10 12.2
2017-Jun-24 15:19 114 6 gusting 11 12.2
2017-Jun-24 15:09 119 2 gusting 8 12.2
2017-Jun-24 14:49 112 4 gusting 10 12.2
2017-Jun-24 14:39 116 4 gusting 10 12.2
2017-Jun-24 13:59 127 6 gusting 13 12.2
2017-Jun-24 13:39 110 7 gusting 13 12.2
2017-Jun-24 13:19 117 4 gusting 12 12.2
2017-Jun-24 13:09 127 7 gusting 13 12.2
2017-Jun-24 12:59 123 6 gusting 18 12.2
2017-Jun-24 12:49 082 6 gusting 13 12.8
2017-Jun-24 12:39 126 6 gusting 13 12.2
2017-Jun-24 12:19 091 6 gusting 14 12.2
2017-Jun-24 12:09 121 7 gusting 17 12.2
2017-Jun-24 11:59 124 7 gusting 13 12.2
2017-Jun-24 11:39 126 10 gusting 17 12.2
2017-Jun-24 11:29 118 8 gusting 15 12.2
2017-Jun-24 11:19 122 7 gusting 15 12.2
2017-Jun-24 10:59 117 9 gusting 14 12.8
2017-Jun-24 10:49 117 8 gusting 17 12.8
2017-Jun-24 10:29 112 10 gusting 15 12.8
2017-Jun-24 09:59 129 10 gusting 17 12.8
2017-Jun-24 09:49 114 8 gusting 18 12.8
2017-Jun-24 09:39 122 8 gusting 21 13.3
2017-Jun-24 09:19 109 10 gusting 14 13.3
2017-Jun-24 09:09 124 9 gusting 15 13.3
2017-Jun-24 08:49 112 8 gusting 13 13.9
2017-Jun-24 08:39 126 8 gusting 15 13.9
2017-Jun-24 08:29 139 7 gusting 14 13.9
2017-Jun-24 08:19 139 7 gusting 11 13.9
2017-Jun-24 07:59 126 4 gusting 13 13.9
2017-Jun-24 07:49 101 6 gusting 12 13.9
2017-Jun-24 07:39 116 6 gusting 11 13.9
2017-Jun-24 07:29 117 6 gusting 13 13.9
2017-Jun-24 07:09 126 7 gusting 17 13.9
2017-Jun-24 06:49 124 10 gusting 14 13.9
2017-Jun-24 06:39 124 8 gusting 14 14.4
2017-Jun-24 06:29 110 9 gusting 14 14.4
2017-Jun-24 06:09 122 6 gusting 11 14.4
2017-Jun-24 05:59 122 6 gusting 11 14.4
2017-Jun-24 05:19 129 6 gusting 13 14.4
2017-Jun-24 05:09 127 7 gusting 13 14.4
2017-Jun-24 04:59 115 6 gusting 13 14.4
2017-Jun-24 04:49 121 6 gusting 17 14.4
2017-Jun-24 04:29 120 6 gusting 13 13.9
2017-Jun-24 04:19 125 5 gusting 15 13.9
2017-Jun-24 03:59 145 5 gusting 11 13.9
2017-Jun-24 03:49 124 4 gusting 10 13.9
2017-Jun-24 03:09 130 6 gusting 11 13.9
2017-Jun-24 02:49 126 4 gusting 12 13.9
2017-Jun-24 02:19 132 2 gusting 13 13.9
2017-Jun-24 02:09 140 4 gusting 10 13.9
2017-Jun-24 01:59 144 5 gusting 11 13.9
2017-Jun-24 01:49 131 2 gusting 14 13.9
2017-Jun-24 01:39 132 10 gusting 13 13.9
2017-Jun-24 01:19 120 6 gusting 12 13.9
2017-Jun-24 00:59 126 8 gusting 12 13.9
2017-Jun-24 00:49 116 6 gusting 13 13.9
2017-Jun-24 00:39 127 6 gusting 10 13.9
2017-Jun-24 00:29 130 4 gusting 8 13.9
2017-Jun-24 00:19 120 5 gusting 8 13.9
2017-Jun-24 00:09 130 2 gusting 11 13.9
2017-Jun-23 23:59 129 3 gusting 8 13.3
2017-Jun-23 23:29 142 2 gusting 10 13.9
2017-Jun-23 23:19 132 2 gusting 7 13.3
2017-Jun-23 23:09 126 1 gusting 6 13.3
2017-Jun-23 22:49 120 0 gusting 6 12.8
2017-Jun-23 22:29 089 12.8
2017-Jun-23 22:19 089 12.8
2017-Jun-23 22:09 089 13.3
2017-Jun-23 21:59 089 13.3
2017-Jun-23 21:39 040 13.3
2017-Jun-23 21:29 041 13.3
2017-Jun-23 20:59 033 1 gusting 7 13.9
2017-Jun-23 20:39 053 2 gusting 6 13.9
2017-Jun-23 20:29 044 2 gusting 10 14.4
2017-Jun-23 20:09 026 0 gusting 8 14.4